{"data":{"norad_id":53779,"intl_designator":"2022-111G","name":"STARLINK-4706","alt_names":[],"object_type":"PAYLOAD","status":"ACTIVE","operator":null,"country":"US","launch_date":"2022-09-11","launch_site_code":"AFETR","launch_vehicle":null,"mission":null,"orbit_class":"UNKNOWN","rcs_meters":null,"size_class":null,"mass_kg":null,"dimensions":null,"purposes":["comms"],"wikipedia_slug":null,"has_3d_model":false,"image_url":null,"decayed_at":null,"tle_current":{"epoch":"2026-05-25T02:59:51.048096Z","epoch_age_seconds":60298,"freshness":"FRESH","line1":"1 53779U 22111G   26145.12489639  .00002815  00000+0  19478-3 0  9995","line2":"2 53779  53.2134 291.1062 0001102  88.5611 271.5508 15.08860100205234","mean_motion":15.088601,"eccentricity":0.0001102,"inclination_deg":53.2134,"raan_deg":291.1062,"arg_perigee_deg":88.5611,"mean_anomaly_deg":271.5508,"bstar":0.00019478,"rev_number":20523,"period_min":95.43628332408,"perigee_km":538.91960833875,"apogee_km":540.44429563577,"semimajor_km":6917.8189519873,"source":"CELESTRAK","updated_at":"2026-05-25T13:38:17.542037Z"}}}